TimeMDT,TemperatureF,Dew PointF,Humidity,Sea Level PressureIn,VisibilityMPH,Wind Direction,Wind SpeedMPH,Gust SpeedMPH,PrecipitationIn,Events,Conditions,WindDirDegrees,DateUTC
12:53 AM,23.0,10.0,58,30.18,10.0,Calm,Calm,-,N/A,,Clear,0,2012-10-08 06:53:00
1:53 AM,21.0,12.0,68,30.19,10.0,Calm,Calm,-,N/A,,Clear,0,2012-10-08 07:53:00
2:53 AM,21.0,10.0,63,30.17,10.0,Calm,Calm,-,N/A,,Clear,0,2012-10-08 08:53:00
3:53 AM,19.0,9.0,65,30.18,10.0,Calm,Calm,-,N/A,,Clear,0,2012-10-08 09:53:00
4:53 AM,18.0,10.0,71,30.18,10.0,Calm,Calm,-,N/A,,Clear,0,2012-10-08 10:53:00
5:53 AM,18.0,10.0,71,30.19,10.0,Calm,Calm,-,N/A,,Clear,0,2012-10-08 11:53:00
6:53 AM,17.1,9.0,71,30.24,10.0,Calm,Calm,-,N/A,,Clear,0,2012-10-08 12:53:00
7:53 AM,19.9,12.0,71,30.26,10.0,Calm,Calm,-,N/A,,Clear,0,2012-10-08 13:53:00
8:53 AM,28.9,10.9,47,30.24,10.0,Calm,Calm,-,N/A,,Clear,0,2012-10-08 14:53:00
9:53 AM,39.9,12.0,32,30.18,10.0,Calm,Calm,-,N/A,,Clear,0,2012-10-08 15:53:00
10:53 AM,51.1,8.1,18,30.12,10.0,Calm,Calm,-,N/A,,Clear,0,2012-10-08 16:53:00
11:53 AM,57.0,8.1,14,30.07,10.0,WNW,8.1,-,N/A,,Clear,290,2012-10-08 17:53:00
12:53 PM,62.1,8.1,12,30.02,10.0,WSW,11.5,19.6,N/A,,Clear,240,2012-10-08 18:53:00
1:53 PM,64.0,3.9,9,29.99,10.0,WSW,13.8,21.9,N/A,,Clear,250,2012-10-08 19:53:00
2:53 PM,66.9,-2.9,6,29.95,10.0,West,13.8,23.0,N/A,,Clear,260,2012-10-08 20:53:00
3:53 PM,66.0,-2.0,7,29.94,10.0,WSW,19.6,25.3,N/A,,Clear,240,2012-10-08 21:53:00
4:53 PM,64.9,-2.9,7,29.95,10.0,West,18.4,25.3,N/A,,Clear,260,2012-10-08 22:53:00
5:53 PM,62.1,1.9,9,29.97,10.0,West,11.5,-,N/A,,Clear,260,2012-10-08 23:53:00
6:53 PM,54.0,8.1,16,30.00,10.0,WSW,13.8,-,N/A,,Clear,240,2012-10-09 00:53:00
7:53 PM,46.4,10.4,23,29.98,10.0,SW,13.8,-,N/A,,Clear,220,2012-10-09 01:53:00
8:53 PM,48.9,10.0,21,29.99,10.0,SW,10.4,-,N/A,,Clear,230,2012-10-09 02:53:00
9:53 PM,43.0,10.0,26,29.98,10.0,WNW,4.6,-,N/A,,Clear,290,2012-10-09 03:53:00
10:53 PM,41.0,12.2,31,30.02,10.0,Calm,Calm,-,N/A,,Clear,0,2012-10-09 04:53:00
11:53 PM,37.9,12.9,36,29.95,10.0,East,4.6,-,N/A,,Clear,90,2012-10-09 05:53:00